Showing default

IRIDIUM 166, 43570

Orbit data source: Space-Track

IRIDIUM 166, 43570 is a payload satellite owned by Iridium (US) in LEO that was launched on Wed, 25 Jul 2018 UTC via an FALCON 9 launch vehicle from the Air Force Western Test Range (AFWTR). Payload-class satellites include a variety of spacecraft equipped with specific instruments for various scientific and technological missions. These include communications satellites like Starlink; space stations such as the ISS; scientific satellites like the Hubble; Earth observation satellites from companies like Planet Labs, Umbra, and HawkEye 360; GPS; miniature CubeSats for education and research; and military/defense satellites.

Loading next visibility...
Identifier
43570, 2018-061B
Orbit
LEO
Country
Flag of USUS
Related business
Manufacturer
NGIS SSG Gilbert
Mission
Operational Commercial Communications
Bus & Motor
ELITEBUS, Unknown motor
Mass
860 kg wet, 700 kg dry
Launch date (UTC)
2018-07-25 (7 years ago)
Launch vehicle
FALCON 9
Launch site
Air Force Western Test Range (AFWTR)
Object type
Payload
Rocket body
Debris
Shape & HBR
Trap Box + 2 Pan, 4.7 m
Radar Cross Section
14.423 m², Large (>1 m²)

Expand to show TLE details & history
Last TLE update: 15 hours ago

TLE from 15 hours ago
0 IRIDIUM 166
1 43570U 18061B   25258.75590873 -.00000003  00000-0 -81214-5 0  9997
2 43570  86.4047 171.4376 0002239  79.5783 280.5665 14.34217578374068
Epoch: 2025-09-15T18:08Z
TLE epoch observation values (Epoch: 2025-09-15T18:08:30.514Z)
Latitude
-0.00002°
Longitude
-95.64554°
Altitude
780.425 km
Speed
7.464 km/s
True Right ascension
11h 25m 45s
True Declination
0° 00' 00"
Sunlit
Object was in daylight at epoch
Visualization orbit readout
Latitude
Unknown
Longitude
Unknown
Altitude
Unknown
Speed
Unknown
Apparent Right ascension
Unknown
Apparent Declination
Unknown
Sunlit
N/A
Visualization observer readout
Local Sidereal Time
02:15:05
Azimuth
Unknown
Elevation
Unknown
Doppler factor
Unknown
Orbital elements
Apogee altitude
776.234 km
Perigee altitude
773.031 km
Semi-major axis
7,152.769 km
Eccentricity
0.00022
Inclination
86.4047°
RAAN
171.4376°
Arg. of periapsis
79.5783°
True anomaly
280.54128°
Mean anomaly
280.5665°
Eccentric anomaly
280.55389°
Mean motion
3.58783 °/min
Orbital period
100.34 mins
BSTAR
-0.0000081214
Loading maneuver chart data...
Computing Atmospheric mass density...
Loading historical data...
Loading historical data...
Loading historical data...
Loading historical data...
Loading historical data...
Loading historical data...
Loading historical data...

Documentation

Showing up to 5 results
|